HYLAS 2

Last updated on Thu Nov 21 2024 00:02:42 GMT+0000 (Coordinated Universal Time)

1 38741U 12043B 24325.25205546 -.00000261 00000+0 00000+0 0 9996 2 38741 0.9409 88.1518 0004253 180.4816 24.3482 1.00269346 45014
UTC large
Height (km)
Speed (km/s)
/
Latitude / Longitude
Inclination (degrees)
Orbital Period (minutes)
Azimuth
Elevation
Range (km)
Doppler Factor

Next 0 passes for location: London (51.5072 / 0.1276)

Sorry there are no passes over London.